,,PA_Meas_PMT16A,,PR_Meas_QMR101_102,,RH_Meas_QMH101,,SR_Meas_QMS101,,TA_Meas_QMH101,,GenWind,,GenWind,
time,status,PA,status,PR,status,RH,status,SR,status,TA,status,DirAvg,status,SpdAvg,
2012-10-03, 00:00:04,VALID,919.59,VALID,0,VALID,89.8725,VALID,0,VALID,20.5235,VALID,141,VALID,0,
2012-10-03, 00:01:04,VALID,919.558,VALID,0,VALID,90.0935,VALID,0,VALID,20.4454,VALID,141,VALID,0,
2012-10-03, 00:02:04,VALID,919.543,VALID,0,VALID,90.2536,VALID,0,VALID,20.3674,VALID,121,VALID,0,
2012-10-03, 00:03:04,VALID,919.502,VALID,0,VALID,90.6653,VALID,0,VALID,20.3089,VALID,123,VALID,0,
2012-10-03, 00:04:04,VALID,919.464,VALID,0,VALID,90.8711,VALID,0,VALID,20.2894,VALID,132,VALID,0,
2012-10-03, 00:05:04,VALID,919.458,VALID,0,VALID,90.9778,VALID,0,VALID,20.2894,VALID,132,VALID,0,
2012-10-03, 00:06:04,VALID,919.42,VALID,0,VALID,91.0846,VALID,0.107441,VALID,20.2894,VALID,132,VALID,0,
2012-10-03, 00:07:04,VALID,919.356,VALID,0,VALID,91.1837,VALID,0.107441,VALID,20.3089,VALID,132,VALID,0,
2012-10-03, 00:08:04,VALID,919.359,VALID,0,VALID,91.2218,VALID,0,VALID,20.2894,VALID,132,VALID,0,
2012-10-03, 00:09:04,VALID,919.311,VALID,0,VALID,91.2752,VALID,0,VALID,20.2504,VALID,132,VALID,0,
2012-10-03, 00:10:04,VALID,919.297,VALID,0,VALID,91.3285,VALID,0,VALID,20.2114,VALID,132,VALID,0,
2012-10-03, 00:11:04,VALID,919.275,VALID,0,VALID,91.3285,VALID,0,VALID,20.1334,VALID,132,VALID,0,
2012-10-03, 00:12:04,VALID,919.278,VALID,0,VALID,91.4581,VALID,0,VALID,20.0749,VALID,132,VALID,0,
2012-10-03, 00:13:04,VALID,919.274,VALID,0,VALID,91.7097,VALID,0.107441,VALID,20.0163,VALID,132,VALID,0,
2012-10-03, 00:14:04,VALID,919.258,VALID,0,VALID,92.0146,VALID,0,VALID,19.9578,VALID,132,VALID,0,
2012-10-03, 00:15:04,VALID,919.274,VALID,0,VALID,92.3196,VALID,0.107441,VALID,19.9383,VALID,132,VALID,0,
2012-10-03, 00:16:04,VALID,919.294,VALID,0,VALID,92.5635,VALID,0,VALID,19.9383,VALID,132,VALID,0,
2012-10-03, 00:17:04,VALID,919.288,VALID,0,VALID,92.716,VALID,0,VALID,19.9578,VALID,132,VALID,0,
2012-10-03, 00:18:04,VALID,919.269,VALID,0,VALID,92.7617,VALID,0,VALID,19.9968,VALID,132,VALID,0,
2012-10-03, 00:19:04,VALID,919.275,VALID,0,VALID,92.6016,VALID,0.107441,VALID,20.0163,VALID,132,VALID,0,
2012-10-03, 00:20:04,VALID,919.248,VALID,0,VALID,92.4492,VALID,0,VALID,20.0553,VALID,132,VALID,0,
2012-10-03, 00:21:04,VALID,919.269,VALID,0,VALID,92.2205,VALID,0,VALID,20.0944,VALID,132,VALID,0,
2012-10-03, 00:22:04,VALID,919.257,VALID,0,VALID,91.9689,VALID,0,VALID,20.1334,VALID,132,VALID,0,
2012-10-03, 00:23:04,VALID,919.237,VALID,0,VALID,91.9003,VALID,0,VALID,20.1529,VALID,132,VALID,0,
2012-10-03, 00:24:04,VALID,919.227,VALID,0,VALID,91.7935,VALID,0,VALID,20.1529,VALID,132,VALID,0,
2012-10-03, 00:25:04,VALID,919.2,VALID,0,VALID,91.7859,VALID,0,VALID,20.1529,VALID,132,VALID,0,
2012-10-03, 00:26:04,VALID,919.131,VALID,0,VALID,91.6868,VALID,0.107441,VALID,20.1123,VALID,132,VALID,0,
2012-10-03, 00:27:04,VALID,919.156,VALID,0,VALID,91.8698,VALID,0,VALID,20.0944,VALID,132,VALID,0,
2012-10-03, 00:28:04,VALID,919.117,VALID,0,VALID,92.0223,VALID,0.107441,VALID,20.0749,VALID,132,VALID,0,
2012-10-03, 00:29:04,VALID,919.107,VALID,0,VALID,92.1061,VALID,0,VALID,20.0553,VALID,132,VALID,0,
2012-10-03, 00:30:04,VALID,919.093,VALID,0,VALID,92.1214,VALID,0.107441,VALID,20.0163,VALID,132,VALID,0,
2012-10-03, 00:31:04,VALID,919.107,VALID,0,VALID,92.2891,VALID,0,VALID,19.9773,VALID,132,VALID,0,
2012-10-03, 00:32:04,VALID,919.107,VALID,0,VALID,92.5178,VALID,0,VALID,19.9383,VALID,132,VALID,0,
2012-10-03, 00:33:04,VALID,919.13,VALID,0,VALID,92.7312,VALID,0,VALID,19.8798,VALID,132,VALID,0,
2012-10-03, 00:34:04,VALID,919.163,VALID,0,VALID,92.838,VALID,0,VALID,19.8618,VALID,132,VALID,0,
2012-10-03, 00:35:04,VALID,919.157,VALID,0,VALID,92.8761,VALID,0,VALID,19.9008,VALID,132,VALID,0,
2012-10-03, 00:36:04,VALID,919.17,VALID,0,VALID,92.5559,VALID,0,VALID,19.9203,VALID,132,VALID,0,
2012-10-03, 00:37:04,VALID,919.199,VALID,0,VALID,92.1137,VALID,0,VALID,19.9984,VALID,132,VALID,0,
2012-10-03, 00:38:04,VALID,919.17,VALID,0,VALID,91.6258,VALID,0,VALID,20.0569,VALID,132,VALID,0,
2012-10-03, 00:39:04,VALID,919.151,VALID,0,VALID,91.4657,VALID,0,VALID,20.0944,VALID,132,VALID,0,
2012-10-03, 00:40:04,VALID,919.187,VALID,0,VALID,91.3361,VALID,0,VALID,20.1739,VALID,132,VALID,0,
2012-10-03, 00:41:04,VALID,919.163,VALID,0,VALID,90.955,VALID,0,VALID,20.2129,VALID,132,VALID,0,
2012-10-03, 00:42:04,VALID,919.172,VALID,0,VALID,90.7339,VALID,0,VALID,20.2519,VALID,132,VALID,0,
2012-10-03, 00:43:04,VALID,919.161,VALID,0,VALID,90.3756,VALID,0,VALID,20.2714,VALID,132,VALID,0,
2012-10-03, 00:44:04,VALID,919.142,VALID,0,VALID,90.1545,VALID,0,VALID,20.3105,VALID,132,VALID,0,
2012-10-03, 00:45:04,VALID,919.105,VALID,0,VALID,90.6424,VALID,0,VALID,20.3495,VALID,132,VALID,0,
2012-10-03, 00:46:04,VALID,919.079,VALID,0,VALID,90.6424,VALID,0,VALID,20.369,VALID,132,VALID,0,
2012-10-03, 00:47:04,VALID,919.074,VALID,0,VALID,90.6577,VALID,0,VALID,20.429,VALID,132,VALID,0,
2012-10-03, 00:48:04,VALID,919.054,VALID,0,VALID,90.7796,VALID,0,VALID,20.4064,VALID,132,VALID,0,
2012-10-03, 00:49:04,VALID,919.084,VALID,0,VALID,90.5204,VALID,0,VALID,20.3869,VALID,132,VALID,0,
2012-10-03, 00:50:04,VALID,919.095,VALID,0,VALID,90.368,VALID,0,VALID,20.3674,VALID,132,VALID,0,
2012-10-03, 00:51:04,VALID,919.12,VALID,0,VALID,90.4137,VALID,0,VALID,20.3284,VALID,132,VALID,0,
2012-10-03, 00:52:04,VALID,919.081,VALID,0,VALID,90.65,VALID,0,VALID,20.3284,VALID,133,VALID,0,
2012-10-03, 00:53:04,VALID,919.103,VALID,0,VALID,90.8406,VALID,0,VALID,20.2699,VALID,133,VALID,0,
2012-10-03, 00:54:04,VALID,919.14,VALID,0,VALID,91.0388,VALID,0.107441,VALID,20.2309,VALID,133,VALID,0,
2012-10-03, 00:55:04,VALID,919.143,VALID,0,VALID,91.2447,VALID,0,VALID,20.1919,VALID,133,VALID,0,
2012-10-03, 00:56:04,VALID,919.166,VALID,0,VALID,91.3133,VALID,0.107441,VALID,20.1919,VALID,133,VALID,0,
2012-10-03, 00:57:04,VALID,919.133,VALID,0,VALID,91.3209,VALID,0,VALID,20.1724,VALID,133,VALID,0,
2012-10-03, 00:58:04,VALID,919.125,VALID,0,VALID,91.4124,VALID,0,VALID,20.1724,VALID,136,VALID,0,
2012-10-03, 00:59:04,VALID,919.123,VALID,0,VALID,91.6335,VALID,0.107441,VALID,20.1724,VALID,154,VALID,0,
2012-10-03, 01:00:04,VALID,919.115,VALID,0,VALID,91.9155,VALID,0.107441,VALID,20.1334,VALID,153,VALID,0,
2012-10-03, 01:01:04,VALID,919.113,VALID,0,VALID,92.2738,VALID,0,VALID,20.1139,VALID,153,VALID,0,
2012-10-03, 01:02:04,VALID,919.166,VALID,0,VALID,92.5102,VALID,0,VALID,20.0944,VALID,135,VALID,0,
2012-10-03, 01:03:04,VALID,919.186,VALID,0,VALID,92.7007,VALID,0,VALID,20.0553,VALID,140,VALID,0,
2012-10-03, 01:04:04,VALID,919.171,VALID,0,VALID,92.9523,VALID,0,VALID,20.0358,VALID,141,VALID,0,
2012-10-03, 01:05:04,VALID,919.208,VALID,0,VALID,93.1658,VALID,0,VALID,20.0374,VALID,141,VALID,0,
2012-10-03, 01:06:04,VALID,919.239,VALID,0,VALID,93.3564,VALID,0,VALID,19.9968,VALID,141,VALID,0,
2012-10-03, 01:07:04,VALID,919.22,VALID,0,VALID,93.4859,VALID,0,VALID,20.0179,VALID,141,VALID,0,
2012-10-03, 01:08:04,VALID,919.21,VALID,0,VALID,93.5393,VALID,0,VALID,19.9984,VALID,141,VALID,0,
2012-10-03, 01:09:04,VALID,919.22,VALID,0,VALID,93.6003,VALID,0,VALID,19.9984,VALID,141,VALID,0,
2012-10-03, 01:10:04,VALID,919.222,VALID,0,VALID,93.6384,VALID,0,VALID,19.9788,VALID,141,VALID,0,
2012-10-03, 01:11:04,VALID,919.247,VALID,0,VALID,93.6689,VALID,0,VALID,19.9804,VALID,141,VALID,0,
2012-10-03, 01:12:04,VALID,919.243,VALID,0,VALID,93.7451,VALID,0,VALID,19.9593,VALID,141,VALID,0,
2012-10-03, 01:13:04,VALID,919.261,VALID,0,VALID,93.829,VALID,0,VALID,19.9398,VALID,141,VALID,0,
2012-10-03, 01:14:04,VALID,919.237,VALID,0,VALID,93.8595,VALID,0,VALID,19.9593,VALID,141,VALID,0,
2012-10-03, 01:15:04,VALID,919.197,VALID,0,VALID,93.9281,VALID,0,VALID,19.9788,VALID,141,VALID,0,
2012-10-03, 01:16:04,VALID,919.19,VALID,0,VALID,93.8976,VALID,0,VALID,19.9984,VALID,141,VALID,0,
2012-10-03, 01:17:04,VALID,919.2,VALID,0,VALID,93.7833,VALID,0,VALID,20.0163,VALID,141,VALID,0,
2012-10-03, 01:18:04,VALID,919.188,VALID,0,VALID,93.6994,VALID,0,VALID,20.0163,VALID,141,VALID,0,
2012-10-03, 01:19:04,VALID,919.164,VALID,0,VALID,93.4936,VALID,0,VALID,20.0569,VALID,141,VALID,0,
2012-10-03, 01:20:04,VALID,919.148,VALID,0,VALID,93.3259,VALID,0,VALID,20.0569,VALID,141,VALID,0,
2012-10-03, 01:21:04,VALID,919.113,VALID,0,VALID,93.2268,VALID,0,VALID,20.0944,VALID,141,VALID,0,
2012-10-03, 01:22:04,VALID,919.128,VALID,0,VALID,93.1048,VALID,0,VALID,20.1349,VALID,141,VALID,0,
2012-10-03, 01:23:04,VALID,919.073,VALID,0,VALID,92.9371,VALID,0,VALID,20.1544,VALID,141,VALID,0,
2012-10-03, 01:24:04,VALID,919.027,VALID,0,VALID,92.7541,VALID,0,VALID,20.1334,VALID,141,VALID,0,
2012-10-03, 01:25:04,VALID,919.023,VALID,0,VALID,92.7465,VALID,0,VALID,20.1739,VALID,141,VALID,0,
2012-10-03, 01:26:04,VALID,919.013,VALID,0,VALID,92.5711,VALID,0,VALID,20.1544,VALID,141,VALID,0,
2012-10-03, 01:27:04,VALID,918.994,VALID,0,VALID,92.4568,VALID,0,VALID,20.1544,VALID,141,VALID,0,
2012-10-03, 01:28:04,VALID,919.003,VALID,0,VALID,92.411,VALID,0,VALID,20.1544,VALID,141,VALID,0,
2012-10-03, 01:29:04,VALID,918.983,VALID,0,VALID,92.4873,VALID,0,VALID,20.1349,VALID,141,VALID,0,
2012-10-03, 01:30:04,VALID,918.963,VALID,0,VALID,92.4644,VALID,0,VALID,20.0959,VALID,141,VALID,0,
2012-10-03, 01:31:04,VALID,918.971,VALID,0,VALID,92.4187,VALID,0,VALID,20.0764,VALID,141,VALID,0,
2012-10-03, 01:32:04,VALID,918.949,VALID,0,VALID,92.0451,VALID,0,VALID,20.0764,VALID,141,VALID,0,
2012-10-03, 01:33:04,VALID,918.915,VALID,0,VALID,91.4505,VALID,0,VALID,20.0928,VALID,141,VALID,0,
2012-10-03, 01:34:04,VALID,918.927,VALID,0,VALID,90.9321,VALID,0,VALID,20.1919,VALID,141,VALID,0,
2012-10-03, 01:35:04,VALID,918.892,VALID,0,VALID,90.6958,VALID,0.107441,VALID,20.2504,VALID,141,VALID,0,
2012-10-03, 01:36:04,VALID,918.917,VALID,0,VALID,90.6805,VALID,0,VALID,20.2894,VALID,141,VALID,0,
2012-10-03, 01:37:04,VALID,918.899,VALID,0,VALID,90.711,VALID,0.107441,VALID,20.3089,VALID,141,VALID,0,
2012-10-03, 01:38:04,VALID,918.858,VALID,0,VALID,90.8559,VALID,0,VALID,20.3089,VALID,141,VALID,0,
2012-10-03, 01:39:04,VALID,918.848,VALID,0,VALID,90.9245,VALID,0,VALID,20.3089,VALID,141,VALID,0,
2012-10-03, 01:40:04,VALID,918.843,VALID,0,VALID,90.8254,VALID,0.107441,VALID,20.2879,VALID,141,VALID,0,
2012-10-03, 01:41:04,VALID,918.816,VALID,0,VALID,90.8254,VALID,0.107441,VALID,20.3089,VALID,141,VALID,0,
2012-10-03, 01:42:04,VALID,918.807,VALID,0,VALID,90.8254,VALID,0.107441,VALID,20.3089,VALID,141,VALID,0,
2012-10-03, 01:43:04,VALID,918.8,VALID,0,VALID,90.8787,VALID,0.107441,VALID,20.2684,VALID,141,VALID,0,
2012-10-03, 01:44:04,VALID,918.788,VALID,0,VALID,90.6424,VALID,0.107441,VALID,20.2699,VALID,141,VALID,0,
2012-10-03, 01:45:04,VALID,918.803,VALID,0,VALID,90.5509,VALID,0.107441,VALID,20.2293,VALID,141,VALID,0,
2012-10-03, 01:46:04,VALID,918.795,VALID,0,VALID,90.7187,VALID,0.107441,VALID,20.2489,VALID,141,VALID,0,
2012-10-03, 01:47:04,VALID,918.757,VALID,0,VALID,90.955,VALID,0,VALID,20.2894,VALID,141,VALID,0,
2012-10-03, 01:48:04,VALID,918.772,VALID,0,VALID,91.1303,VALID,0,VALID,20.3089,VALID,141,VALID,0,
2012-10-03, 01:49:04,VALID,918.798,VALID,0,VALID,91.0922,VALID,0,VALID,20.369,VALID,141,VALID,0,
2012-10-03, 01:50:04,VALID,918.76,VALID,0,VALID,91.0846,VALID,0,VALID,20.3885,VALID,141,VALID,0,
2012-10-03, 01:51:04,VALID,918.793,VALID,0,VALID,90.894,VALID,0,VALID,20.3885,VALID,141,VALID,0,
2012-10-03, 01:52:04,VALID,918.8,VALID,0,VALID,90.7796,VALID,0,VALID,20.3674,VALID,141,VALID,0,
2012-10-03, 01:53:04,VALID,918.782,VALID,0,VALID,90.7873,VALID,0,VALID,20.3885,VALID,141,VALID,0,
2012-10-03, 01:54:04,VALID,918.795,VALID,0,VALID,91.077,VALID,0,VALID,20.408,VALID,141,VALID,0,
2012-10-03, 01:55:04,VALID,918.783,VALID,0,VALID,91.1761,VALID,0,VALID,20.3869,VALID,141,VALID,0,
2012-10-03, 01:56:04,VALID,918.768,VALID,0,VALID,91.0922,VALID,0,VALID,20.369,VALID,141,VALID,0,
2012-10-03, 01:57:04,VALID,918.745,VALID,0,VALID,91.1532,VALID,0,VALID,20.3089,VALID,141,VALID,0,
2012-10-03, 01:58:04,VALID,918.683,VALID,0,VALID,91.1074,VALID,0,VALID,20.3495,VALID,141,VALID,0,
2012-10-03, 01:59:04,VALID,918.682,VALID,0,VALID,91.1379,VALID,0,VALID,20.2894,VALID,141,VALID,0,
2012-10-03, 02:00:04,VALID,918.678,VALID,0,VALID,91.4048,VALID,0,VALID,20.2894,VALID,141,VALID,0,
2012-10-03, 02:01:04,VALID,918.623,VALID,0,VALID,91.8317,VALID,0,VALID,20.2309,VALID,141,VALID,0,
2012-10-03, 02:02:04,VALID,918.652,VALID,0,VALID,91.824,VALID,0,VALID,20.1934,VALID,141,VALID,0,
2012-10-03, 02:03:04,VALID,918.618,VALID,0,VALID,91.9003,VALID,0,VALID,20.1334,VALID,141,VALID,0,
2012-10-03, 02:04:04,VALID,918.668,VALID,0,VALID,92.2052,VALID,0,VALID,20.1139,VALID,141,VALID,0,
2012-10-03, 02:05:04,VALID,918.667,VALID,0,VALID,92.3119,VALID,0,VALID,20.0749,VALID,141,VALID,0,
2012-10-03, 02:06:04,VALID,918.671,VALID,0,VALID,92.1747,VALID,0,VALID,20.0553,VALID,141,VALID,0,
2012-10-03, 02:07:04,VALID,918.666,VALID,0,VALID,92.1442,VALID,0,VALID,20.0163,VALID,141,VALID,0,
2012-10-03, 02:08:04,VALID,918.693,VALID,0,VALID,92.0451,VALID,0,VALID,20.0163,VALID,141,VALID,0,
2012-10-03, 02:09:04,VALID,918.704,VALID,0,VALID,92.007,VALID,0,VALID,20.0163,VALID,141,VALID,0,
2012-10-03, 02:10:04,VALID,918.714,VALID,0,VALID,91.946,VALID,0,VALID,20.0163,VALID,141,VALID,0,
2012-10-03, 02:11:04,VALID,918.701,VALID,0,VALID,92.0451,VALID,0,VALID,20.0148,VALID,141,VALID,0,
2012-10-03, 02:12:04,VALID,918.702,VALID,0,VALID,92.3348,VALID,0,VALID,20.0343,VALID,141,VALID,0,
2012-10-03, 02:13:04,VALID,918.723,VALID,0,VALID,92.411,VALID,0,VALID,20.0749,VALID,141,VALID,0,
2012-10-03, 02:14:04,VALID,918.669,VALID,0,VALID,92.3043,VALID,0,VALID,20.0944,VALID,141,VALID,0,
2012-10-03, 02:15:04,VALID,918.661,VALID,0,VALID,92.0985,VALID,0,VALID,20.0944,VALID,141,VALID,0,
2012-10-03, 02:16:04,VALID,918.635,VALID,0,VALID,92.1214,VALID,0,VALID,20.0749,VALID,141,VALID,0,
2012-10-03, 02:17:04,VALID,918.627,VALID,0,VALID,92.3806,VALID,0,VALID,20.0749,VALID,141,VALID,0,
2012-10-03, 02:18:04,VALID,918.584,VALID,0,VALID,92.5711,VALID,0,VALID,20.0553,VALID,141,VALID,0,
2012-10-03, 02:19:04,VALID,918.588,VALID,0,VALID,92.8532,VALID,0,VALID,20.0358,VALID,141,VALID,0,
2012-10-03, 02:20:04,VALID,918.572,VALID,0,VALID,93.0438,VALID,0,VALID,20.0163,VALID,141,VALID,0,
2012-10-03, 02:21:04,VALID,918.559,VALID,0,VALID,93.0819,VALID,0,VALID,19.9968,VALID,141,VALID,0,
2012-10-03, 02:22:04,VALID,918.564,VALID,0,VALID,93.059,VALID,0,VALID,19.9773,VALID,141,VALID,0,
2012-10-03, 02:23:04,VALID,918.533,VALID,0,VALID,93.1505,VALID,0,VALID,19.9578,VALID,141,VALID,0,
2012-10-03, 02:24:04,VALID,918.526,VALID,0,VALID,93.1886,VALID,0,VALID,19.9578,VALID,141,VALID,0,
2012-10-03, 02:25:04,VALID,918.509,VALID,0,VALID,93.181,VALID,0,VALID,19.9578,VALID,141,VALID,0,
2012-10-03, 02:26:04,VALID,918.511,VALID,0,VALID,93.059,VALID,0,VALID,19.9383,VALID,141,VALID,0,
2012-10-03, 02:27:04,VALID,918.492,VALID,0,VALID,93.0285,VALID,0,VALID,19.9593,VALID,141,VALID,0,
2012-10-03, 02:28:04,VALID,918.452,VALID,0,VALID,93.1276,VALID,0,VALID,19.9593,VALID,141,VALID,0,
2012-10-03, 02:29:04,VALID,918.47,VALID,0,VALID,93.2725,VALID,0,VALID,19.9383,VALID,141,VALID,0,
2012-10-03, 02:30:04,VALID,918.435,VALID,0,VALID,93.3945,VALID,0,VALID,19.9383,VALID,141,VALID,0,
2012-10-03, 02:31:04,VALID,918.425,VALID,0,VALID,93.3564,VALID,0,VALID,19.9383,VALID,148,VALID,0,
2012-10-03, 02:32:04,VALID,918.422,VALID,0,VALID,93.2496,VALID,0,VALID,19.9984,VALID,153,VALID,0,
2012-10-03, 02:33:04,VALID,918.395,VALID,0,VALID,93.2039,VALID,0,VALID,20.0163,VALID,100,VALID,0,
2012-10-03, 02:34:04,VALID,918.395,VALID,0,VALID,93.0057,VALID,0,VALID,20.0569,VALID,100,VALID,0,
2012-10-03, 02:35:04,VALID,918.357,VALID,0,VALID,92.9752,VALID,0,VALID,20.0374,VALID,100,VALID,0,
2012-10-03, 02:36:04,VALID,918.333,VALID,0,VALID,92.8761,VALID,0,VALID,19.9984,VALID,100,VALID,0,
2012-10-03, 02:37:04,VALID,918.296,VALID,0,VALID,92.8837,VALID,0,VALID,19.9578,VALID,100,VALID,0,
2012-10-03, 02:38:04,VALID,918.295,VALID,0,VALID,92.9066,VALID,0,VALID,19.9188,VALID,100,VALID,0,
2012-10-03, 02:39:04,VALID,918.289,VALID,0,VALID,93.0057,VALID,0,VALID,19.8993,VALID,100,VALID,0,
2012-10-03, 02:40:04,VALID,918.268,VALID,0,VALID,93.0438,VALID,0,VALID,19.9203,VALID,100,VALID,0,
2012-10-03, 02:41:04,VALID,918.271,VALID,0,VALID,93.1429,VALID,0,VALID,19.8798,VALID,100,VALID,0,
2012-10-03, 02:42:04,VALID,918.236,VALID,0,VALID,93.2191,VALID,0,VALID,19.8813,VALID,100,VALID,0,
2012-10-03, 02:43:04,VALID,918.247,VALID,0,VALID,93.2725,VALID,0,VALID,19.8603,VALID,100,VALID,0,
2012-10-03, 02:44:04,VALID,918.226,VALID,0,VALID,93.0895,VALID,0,VALID,19.8798,VALID,100,VALID,0,
2012-10-03, 02:45:04,VALID,918.219,VALID,0,VALID,92.9676,VALID,0,VALID,19.9383,VALID,100,VALID,0,
2012-10-03, 02:46:04,VALID,918.232,VALID,0,VALID,92.7922,VALID,0,VALID,19.9773,VALID,100,VALID,0,
2012-10-03, 02:47:04,VALID,918.242,VALID,0,VALID,92.6397,VALID,0,VALID,20.0358,VALID,100,VALID,0,
2012-10-03, 02:48:04,VALID,918.279,VALID,0,VALID,92.6855,VALID,0,VALID,20.0553,VALID,100,VALID,0,
2012-10-03, 02:49:04,VALID,918.279,VALID,0,VALID,92.777,VALID,0,VALID,20.0553,VALID,100,VALID,0,
2012-10-03, 02:50:04,VALID,918.271,VALID,0,VALID,92.9371,VALID,0,VALID,20.0749,VALID,146,VALID,0,
2012-10-03, 02:51:04,VALID,918.241,VALID,0,VALID,93.0895,VALID,0,VALID,20.0538,VALID,146,VALID,0,
2012-10-03, 02:52:04,VALID,918.233,VALID,0,VALID,93.1886,VALID,0,VALID,20.0749,VALID,146,VALID,0,
2012-10-03, 02:53:04,VALID,918.227,VALID,0,VALID,93.2496,VALID,0,VALID,20.0749,VALID,146,VALID,0,
2012-10-03, 02:54:04,VALID,918.199,VALID,0,VALID,93.1963,VALID,0.107441,VALID,20.0749,VALID,146,VALID,0,
2012-10-03, 02:55:04,VALID,918.196,VALID,0,VALID,93.1581,VALID,0,VALID,20.0944,VALID,146,VALID,0,
2012-10-03, 02:56:04,VALID,918.177,VALID,0,VALID,93.0895,VALID,0,VALID,20.0928,VALID,146,VALID,0,
2012-10-03, 02:57:04,VALID,918.165,VALID,0,VALID,92.9981,VALID,0,VALID,20.1139,VALID,146,VALID,0,
2012-10-03, 02:58:04,VALID,918.173,VALID,0,VALID,92.8075,VALID,0,VALID,20.1334,VALID,146,VALID,0,
2012-10-03, 02:59:04,VALID,918.174,VALID,0,VALID,92.6321,VALID,0,VALID,20.1529,VALID,146,VALID,0,
2012-10-03, 03:00:04,VALID,918.197,VALID,0,VALID,92.4492,VALID,0.107441,VALID,20.1529,VALID,146,VALID,0,
2012-10-03, 03:01:04,VALID,918.196,VALID,0,VALID,92.3577,VALID,0,VALID,20.2114,VALID,146,VALID,0,
2012-10-03, 03:02:04,VALID,918.181,VALID,0,VALID,92.2433,VALID,0,VALID,20.2114,VALID,146,VALID,0,
2012-10-03, 03:03:04,VALID,918.235,VALID,0,VALID,92.0756,VALID,0,VALID,20.2309,VALID,146,VALID,0,
2012-10-03, 03:04:04,VALID,918.209,VALID,0,VALID,92.0146,VALID,0,VALID,20.2309,VALID,146,VALID,0,
2012-10-03, 03:05:04,VALID,918.243,VALID,0,VALID,91.9765,VALID,0,VALID,20.2098,VALID,146,VALID,0,
2012-10-03, 03:06:05,VALID,918.241,VALID,0,VALID,91.8774,VALID,0.107441,VALID,20.2309,VALID,146,VALID,0,
2012-10-03, 03:07:05,VALID,918.28,VALID,0,VALID,91.8317,VALID,0,VALID,20.2114,VALID,146,VALID,0,
2012-10-03, 03:08:05,VALID,918.279,VALID,0,VALID,91.7478,VALID,0,VALID,20.2504,VALID,146,VALID,0,
2012-10-03, 03:09:05,VALID,918.314,VALID,0,VALID,91.2447,VALID,0,VALID,20.2699,VALID,146,VALID,0,
2012-10-03, 03:10:05,VALID,918.293,VALID,0,VALID,90.5509,VALID,0,VALID,20.3089,VALID,146,VALID,0,
2012-10-03, 03:11:05,VALID,918.26,VALID,0,VALID,90.1621,VALID,0,VALID,20.369,VALID,146,VALID,0,
2012-10-03, 03:12:05,VALID,918.308,VALID,0,VALID,89.9106,VALID,0,VALID,20.3885,VALID,146,VALID,0,
2012-10-03, 03:13:05,VALID,918.307,VALID,0,VALID,90.0402,VALID,0,VALID,20.3869,VALID,146,VALID,0,
2012-10-03, 03:14:05,VALID,918.331,VALID,0,VALID,90.0402,VALID,0,VALID,20.3479,VALID,146,VALID,0,
2012-10-03, 03:15:05,VALID,918.32,VALID,0,VALID,90.2689,VALID,0,VALID,20.2684,VALID,146,VALID,0,
2012-10-03, 03:16:05,VALID,918.328,VALID,0,VALID,90.4595,VALID,0,VALID,20.2114,VALID,146,VALID,0,
2012-10-03, 03:17:05,VALID,918.318,VALID,0,VALID,90.5509,VALID,0,VALID,20.1139,VALID,146,VALID,0,
2012-10-03, 03:18:05,VALID,918.34,VALID,0,VALID,90.9931,VALID,0,VALID,20.0179,VALID,146,VALID,0,
2012-10-03, 03:19:05,VALID,918.314,VALID,0,VALID,91.481,VALID,0,VALID,19.9398,VALID,146,VALID,0,
2012-10-03, 03:20:05,VALID,918.303,VALID,0,VALID,91.8698,VALID,0,VALID,19.9008,VALID,146,VALID,0,
2012-10-03, 03:21:05,VALID,918.304,VALID,0,VALID,92.1214,VALID,0,VALID,19.8423,VALID,146,VALID,0,
2012-10-03, 03:22:05,VALID,918.314,VALID,0,VALID,92.2891,VALID,0,VALID,19.8423,VALID,146,VALID,0,
2012-10-03, 03:23:05,VALID,918.304,VALID,0,VALID,92.4263,VALID,0,VALID,19.8033,VALID,146,VALID,0,
2012-10-03, 03:24:05,VALID,918.298,VALID,0,VALID,92.594,VALID,0,VALID,19.8033,VALID,146,VALID,0,
2012-10-03, 03:25:05,VALID,918.283,VALID,0,VALID,92.7922,VALID,0,VALID,19.8228,VALID,146,VALID,0,
2012-10-03, 03:26:05,VALID,918.302,VALID,0,VALID,92.838,VALID,0,VALID,19.8228,VALID,146,VALID,0,
2012-10-03, 03:27:05,VALID,918.269,VALID,0,VALID,92.7465,VALID,0,VALID,19.8243,VALID,146,VALID,0,
2012-10-03, 03:28:05,VALID,918.306,VALID,0,VALID,92.7312,VALID,0,VALID,19.8048,VALID,146,VALID,0,
2012-10-03, 03:29:05,VALID,918.316,VALID,0,VALID,92.7617,VALID,0,VALID,19.7448,VALID,146,VALID,0,
2012-10-03, 03:30:05,VALID,918.328,VALID,0,VALID,92.6626,VALID,0,VALID,19.7058,VALID,146,VALID,0,
2012-10-03, 03:31:05,VALID,918.314,VALID,0,VALID,92.7007,VALID,0,VALID,19.6278,VALID,146,VALID,0,
2012-10-03, 03:32:05,VALID,918.335,VALID,0,VALID,93.0209,VALID,0,VALID,19.5888,VALID,146,VALID,0,
2012-10-03, 03:33:05,VALID,918.345,VALID,0,VALID,93.4707,VALID,0,VALID,19.5888,VALID,146,VALID,0,
2012-10-03, 03:34:05,VALID,918.336,VALID,0,VALID,93.6613,VALID,0,VALID,19.5483,VALID,122,VALID,0,
2012-10-03, 03:35:05,VALID,918.335,VALID,0,VALID,93.8214,VALID,0,VALID,19.5288,VALID,121,VALID,0,
2012-10-03, 03:36:05,VALID,918.345,VALID,0,VALID,93.9815,VALID,0,VALID,19.5483,VALID,121,VALID,0,
2012-10-03, 03:37:05,VALID,918.308,VALID,0,VALID,94.0958,VALID,0,VALID,19.5678,VALID,121,VALID,0,
2012-10-03, 03:38:05,VALID,918.34,VALID,0,VALID,94.1644,VALID,0,VALID,19.5873,VALID,121,VALID,0,
2012-10-03, 03:39:05,VALID,918.333,VALID,0,VALID,94.2026,VALID,0.107441,VALID,19.6053,VALID,121,VALID,0,
2012-10-03, 03:40:05,VALID,918.344,VALID,0,VALID,94.1568,VALID,0,VALID,19.6263,VALID,122,VALID,0,
2012-10-03, 03:41:05,VALID,918.373,VALID,0,VALID,94.1873,VALID,0,VALID,19.6653,VALID,121,VALID,0,
2012-10-03, 03:42:05,VALID,918.344,VALID,0,VALID,94.2178,VALID,0,VALID,19.6848,VALID,151,VALID,0,
2012-10-03, 03:43:05,VALID,918.362,VALID,0,VALID,94.2483,VALID,0,VALID,19.7238,VALID,151,VALID,0,
2012-10-03, 03:44:05,VALID,918.378,VALID,0,VALID,94.233,VALID,0,VALID,19.7433,VALID,151,VALID,0,
2012-10-03, 03:45:05,VALID,918.364,VALID,0,VALID,94.2559,VALID,0,VALID,19.7838,VALID,151,VALID,0,
2012-10-03, 03:46:05,VALID,918.367,VALID,0,VALID,94.3321,VALID,0.107441,VALID,19.7823,VALID,151,VALID,0,
2012-10-03, 03:47:05,VALID,918.36,VALID,0,VALID,94.3931,VALID,0.107441,VALID,19.7823,VALID,151,VALID,0,
2012-10-03, 03:48:05,VALID,918.335,VALID,0,VALID,94.4922,VALID,0,VALID,19.7823,VALID,151,VALID,0,
2012-10-03, 03:49:05,VALID,918.324,VALID,0,VALID,94.6142,VALID,0,VALID,19.8018,VALID,151,VALID,0,
2012-10-03, 03:50:05,VALID,918.307,VALID,0,VALID,94.66,VALID,0.107441,VALID,19.7823,VALID,151,VALID,0,
2012-10-03, 03:51:05,VALID,918.33,VALID,0,VALID,94.7133,VALID,0,VALID,19.7628,VALID,151,VALID,0,
2012-10-03, 03:52:05,VALID,918.33,VALID,0,VALID,94.8048,VALID,0.107441,VALID,19.7433,VALID,151,VALID,0,
2012-10-03, 03:53:05,VALID,918.347,VALID,0,VALID,94.9039,VALID,0,VALID,19.7238,VALID,150,VALID,0,
2012-10-03, 03:54:05,VALID,918.325,VALID,0,VALID,94.9725,VALID,0,VALID,19.7043,VALID,137,VALID,0,
2012-10-03, 03:55:05,VALID,918.349,VALID,0,VALID,95.0411,VALID,0,VALID,19.6848,VALID,108,VALID,0,
2012-10-03, 03:56:05,VALID,918.348,VALID,0,VALID,95.1174,VALID,0,VALID,19.6863,VALID,108,VALID,0,
2012-10-03, 03:57:05,VALID,918.337,VALID,0,VALID,95.1631,VALID,0,VALID,19.6668,VALID,108,VALID,0,
2012-10-03, 03:58:05,VALID,918.326,VALID,0,VALID,95.2241,VALID,0,VALID,19.6668,VALID,108,VALID,0,